[[{"header":{"parameterUnit":"m.s-1","parameterCategory":1,"la1":30.2991,"la2":30.254,"lo1":-89.0895,"lo2":-89.0444,"dy":0.0017,"dx":0.0017,"nx":28,"ny":28,"refTime":"2024-05-11T03:00:00:Z","depth":0,"parameterNumber":2,"parameterNumberName":"U-component_of_WINDS"},"data":[0,0,0,0,0,0,0,0,0,0,0,0,0,0,0,0,0,0,0,0,0,0,0,0,0,0,0,0,0,0,0,0,0,0,0,0,0,0,0,0,0,0,0,0,0,0,0,0,0,0,0,0,0,0,0,0,0,0,-5.5491,-5.5492,0,-5.5539,-5.554,-5.5541,-5.5512,-5.5511,-5.5509,-5.5508,-5.5553,-5.5556,-5.5558,0,0,0,0,0,0,0,0,0,0,0,0,0,-5.5373,-5.5375,-5.5491,-5.5492,-5.5493,-5.5539,-5.554,-5.5541,-5.5512,-5.5511,-5.5509,-5.5507,-5.5552,-5.5555,-5.5558,0,0,0,0,0,0,0,0,0,0,0,0,0,-5.5423,-5.5376,-5.5491,-5.5484,-5.5484,-5.5539,-5.554,-5.5541,-5.5513,-5.5511,-5.5508,-5.5507,-5.5552,-5.5555,-5.5559,-5.5623,0,0,-5.557,-5.5572,0,0,0,0,0,0,0,0,-5.542,-5.5427,-5.5485,-5.5485,-5.5485,-5.5518,-5.5515,-5.5568,-5.5513,-5.5502,-5.5508,-5.5506,-5.5543,-5.5547,-5.5561,-5.5625,-5.5627,-5.557,-5.5573,-5.5574,-5.5575,0,0,0,0,0,0,0,-5.5416,-5.5425,-5.551,-5.5485,-5.5486,-5.5478,-5.5483,-5.5525,-5.5533,-5.5502,-5.55,-5.5507,-5.5542,-5.5557,-5.5561,-5.5627,-5.557,-5.5574,-5.5576,-5.5577,-5.5747,-5.5749,0,0,0,0,0,0,-5.5414,-5.5422,-5.5509,-5.5512,-5.5447,-5.5482,-5.5487,-5.5509,-5.5532,-5.5534,-5.5508,-5.5505,-5.5552,-5.5557,-5.5563,-5.5638,-5.5574,-5.5578,-5.558,-5.5745,-5.5747,-5.575,0,0,0,0,0,0,-5.5411,-5.5422,-5.5507,-5.5466,-5.5477,-5.5486,-5.5511,-5.5511,-5.5526,-5.5537,-5.5538,-5.5522,-5.555,-5.5558,-5.5608,-5.564,-5.5579,-5.5583,-5.5742,-5.5745,-5.5749,-5.5791,0,0,0,0,0,0,-5.5408,-5.5421,-5.5446,-5.5467,-5.5479,-5.5552,-5.5513,-5.5514,-5.5533,-5.5529,-5.555,-5.5551,-5.5549,-5.5603,-5.5612,-5.5644,-5.5586,-5.5739,-5.5743,-5.5747,-5.5786,-5.5795,-5.5803,0,0,0,0,0,-5.5404,-5.5455,-5.5447,-5.5458,-5.551,-5.5554,-5.556,-5.5558,-5.5535,-5.556,-5.5567,-5.5551,-5.5636,-5.5608,-5.5618,-5.5652,-5.5737,-5.5742,-5.5747,-5.5783,-5.5793,-5.5802,0,0,0,0,0,0,-5.5434,-5.5457,-5.5449,-5.5509,-5.553,-5.5549,-5.5579,-5.5569,-5.5596,-5.5591,-5.5586,-5.5591,-5.5644,-5.5653,-5.5623,-5.5715,-5.5683,-5.569,-5.5706,-5.5716,-5.5724,-5.572,-5.5589,0,0,0,0,0,-5.5449,-5.5484,-5.5501,-5.5552,-5.5563,-5.557,-5.5589,-5.5586,-5.5607,-5.5615,-5.5626,-5.5647,-5.5678,-5.5698,-5.5728,-5.5789,-5.5793,-5.5817,-5.5825,-5.5832,-5.5837,-5.587,-5.5881,-5.5767,-5.5767,-5.5766,0,0,-5.5477,-5.5494,-5.5516,-5.5559,-5.5574,-5.561,-5.5577,-5.5616,-5.5641,-5.562,-5.5669,-5.5678,-5.5701,-5.5757,-5.5782,-5.5766,-5.587,-5.5838,-5.5843,-5.5845,-5.5876,-5.5887,-5.5897,-5.577,-5.5769,-5.5769,0,0,-5.5546,-5.5563,-5.5607,-5.5625,-5.5651,-5.5655,-5.5666,-5.5688,-5.5694,-5.5743,-5.5728,-5.5759,-5.5813,-5.5829,-5.5845,-5.5924,-5.5909,-5.5934,-5.5974,-5.6007,-5.6016,-5.6024,-5.605,-5.606,-5.594,-5.594,-5.594,0,-5.5577,-5.5631,-5.5631,-5.5671,-5.569,-5.5676,-5.5719,-5.5736,-5.577,-5.5783,-5.5765,-5.5834,-5.5848,-5.5907,-5.5927,-5.5941,-5.5952,-5.593,-5.6015,-5.6023,-5.603,-5.6055,-5.6066,-5.5943,-5.5943,-5.5942,-5.5942,0,-5.5668,-5.5705,-5.5738,-5.5772,-5.5795,-5.5837,-5.5843,-5.5866,-5.5862,-5.5869,-5.5919,-5.5936,-5.5969,-5.5984,-5.5979,-5.6043,-5.6033,-5.6016,-5.5982,-5.6043,-5.6067,-5.6077,-5.5947,-5.5946,-5.5945,-5.5944,0,0,-5.5753,-5.579,-5.5802,-5.5817,-5.5846,-5.5874,-5.5916,-5.595,-5.597,-5.5994,-5.6028,-5.6076,-5.6061,-5.6078,-5.6076,-5.6105,-5.6165,-5.6084,-5.6084,-5.6097,-5.6236,-5.6247,-5.6258,-5.6158,-5.616,-5.6161,-5.6234,0,-5.5823,-5.5897,-5.5899,-5.5966,-5.6,-5.5989,-5.6025,-5.6046,-5.6054,-5.6084,-5.6093,-5.6126,-5.6104,-5.6115,-5.6143,-5.6152,-5.6193,-5.6147,-5.6187,-5.6189,-5.6179,-5.6271,-5.6282,-5.635,-5.6243,-5.6245,-5.6246,0,-5.5913,-5.5942,-5.6013,-5.6038,-5.6052,-5.6085,-5.6116,-5.6146,-5.617,-5.6174,-5.6196,-5.619,-5.6232,-5.6201,-5.6258,-5.6227,-5.6244,-5.6251,-5.6254,-5.6255,-5.6219,-5.6272,-5.6371,-5.638,-5.6261,-5.626,-5.6258,0,-5.5966,-5.6023,-5.6073,-5.6087,-5.6118,-5.6141,-5.6155,-5.6178,-5.6198,-5.6226,-5.6239,-5.6272,-5.6289,-5.6314,-5.6316,-5.6294,-5.6374,-5.6343,-5.6377,-5.6377,-5.6391,-5.639,-5.6492,-5.6407,-5.6407,-5.6407,-5.6407,0,-5.6042,-5.6085,-5.6098,-5.6128,-5.6176,-5.6179,-5.6227,-5.6239,-5.6259,-5.6291,-5.6284,-5.6314,-5.6317,-5.6348,-5.6351,-5.6398,-5.6406,-5.6409,-5.6409,-5.6408,-5.6408,-5.6417,-5.6411,-5.641,-5.6409,-5.6409,-5.6408,0,-5.6107,-5.6118,-5.6171,-5.6197,-5.6205,-5.6239,-5.6261,-5.629,-5.6299,-5.6339,-5.6349,-5.6362,-5.6399,-5.6405,-5.6448,-5.645,-5.6505,-5.6501,-5.6496,-5.6495,-5.6528,-5.6524,-5.6637,-5.6652,-5.656,-5.6561,-5.6562,0,-5.6153,-5.6186,-5.6217,-5.6239,-5.6254,-5.6289,-5.6311,-5.6316,-5.6339,-5.6371,-5.6395,-5.6432,-5.646,-5.6518,-5.6531,-5.6564,-5.6559,-5.6597,-5.6564,-5.6562,-5.6557,-5.6554,-5.6557,-5.6602,-5.6603,-5.6604,-5.6604,0,-5.6233,-5.6238,-5.627,-5.6305,-5.6331,-5.6358,-5.6384,-5.6402,-5.6411,-5.6437,-5.6475,-5.6497,-5.6542,-5.6577,-5.661,-5.6624,-5.6615,-5.6616,-5.6625,-5.6623,-5.6618,-5.6619,-5.6511,-5.6612,-5.6611,-5.6611,-5.661,-5.661,-5.6289,-5.6318,-5.6345,-5.6381,-5.6402,-5.6427,-5.6455,-5.6469,-5.6501,-5.6538,-5.654,-5.6581,-5.6606,-5.665,-5.6666,-5.6697,-5.6685,-5.6699,-5.6702,-5.6704,-5.6707,-5.6616,-5.6704,-5.6703,-5.6703,-5.6703,-5.6703,0,-5.6367,-5.6384,-5.6418,-5.6455,-5.6484,-5.6477,-5.6506,-5.653,-5.6566,-5.6591,-5.662,-5.6664,-5.6699,-5.6716,-5.6751,-5.6773,-5.677,-5.6782,-5.6778,-5.6781,-5.6716,-5.6704,-5.6783,-5.6783,-5.6783,-5.6783,-5.6783,-5.6783,-5.641,-5.6459,-5.6467,-5.6526,-5.6543,-5.6584,-5.6601,-5.6624,-5.6644,-5.6694,-5.6723,-5.6735,-5.6757,-5.6793,-5.6825,-5.6829,-5.6841,-5.6854,-5.6856,-5.6794,-5.6786,-5.6778,-5.6766,-5.6857,-5.6857,-5.6918,-5.6919,-5.6919]},{"header":{"parameterUnit":"m.s-1","parameterCategory":1,"la1":30.2991,"la2":30.254,"lo1":-89.0895,"lo2":-89.0444,"dy":0.0017,"dx":0.0017,"nx":28,"ny":28,"refTime":"2024-05-11T03:00:00:Z","depth":0,"parameterNumber":3,"parameterNumberName":"V-component_of_WINDS"},"data":[0,0,0,0,0,0,0,0,0,0,0,0,0,0,0,0,0,0,0,0,0,0,0,0,0,0,0,0,0,0,0,0,0,0,0,0,0,0,0,0,0,0,0,0,0,0,0,0,0,0,0,0,0,0,0,0,0,0,2.8054,2.8054,0,2.8057,2.8057,2.8057,2.8069,2.8069,2.8069,2.8069,2.8068,2.8068,2.8068,0,0,0,0,0,0,0,0,0,0,0,0,0,2.8057,2.8057,2.8054,2.8054,2.8054,2.8057,2.8057,2.8057,2.8069,2.8069,2.8069,2.807,2.8068,2.8068,2.8068,0,0,0,0,0,0,0,0,0,0,0,0,0,2.8057,2.8057,2.8054,2.806,2.8061,2.8057,2.8057,2.8057,2.8068,2.8069,2.8069,2.807,2.8068,2.8068,2.8068,2.8056,0,0,2.8066,2.8066,0,0,0,0,0,0,0,0,2.8057,2.8057,2.806,2.806,2.8061,2.8063,2.8057,2.8056,2.8068,2.8066,2.8069,2.807,2.8066,2.8066,2.8065,2.8056,2.8056,2.8066,2.8066,2.8066,2.8066,0,0,0,0,0,0,0,2.8057,2.8057,2.8055,2.806,2.806,2.8062,2.8063,2.8057,2.8063,2.8066,2.8067,2.8067,2.8066,2.8065,2.8065,2.8056,2.8066,2.8066,2.8066,2.8065,2.8039,2.8039,0,0,0,0,0,0,2.8057,2.8057,2.8055,2.8055,2.806,2.8062,2.8063,2.8062,2.8063,2.8064,2.8067,2.8068,2.8066,2.8066,2.8065,2.8053,2.8066,2.8065,2.8065,2.804,2.8039,2.8039,0,0,0,0,0,0,2.8057,2.8056,2.8055,2.8056,2.8056,2.8062,2.806,2.8061,2.8061,2.8064,2.8065,2.8065,2.8066,2.8066,2.8059,2.8053,2.8065,2.8065,2.804,2.804,2.8039,2.8027,0,0,0,0,0,0,2.8057,2.8056,2.8052,2.8056,2.8056,2.8049,2.806,2.8061,2.806,2.8062,2.8063,2.8063,2.8067,2.806,2.8058,2.8052,2.8064,2.8041,2.804,2.8039,2.8028,2.8026,2.8025,0,0,0,0,0,2.8057,2.8048,2.8052,2.8052,2.8052,2.8049,2.8049,2.8054,2.806,2.8056,2.8058,2.8063,2.8054,2.8059,2.8058,2.8051,2.8041,2.804,2.8039,2.8029,2.8027,2.8025,0,0,0,0,0,0,2.8041,2.8048,2.8053,2.8045,2.8047,2.8051,2.8046,2.8051,2.805,2.8051,2.8057,2.8057,2.8049,2.8049,2.8055,2.8041,2.8048,2.8047,2.8041,2.8039,2.8037,2.8037,2.8064,0,0,0,0,0,2.8038,2.8036,2.8041,2.8034,2.8035,2.804,2.8039,2.8043,2.8044,2.8044,2.8046,2.8046,2.8043,2.8041,2.8039,2.8029,2.8029,2.8024,2.8022,2.8021,2.8019,2.8015,2.8013,2.8036,2.8036,2.8036,0,0,2.8029,2.8032,2.803,2.8031,2.8032,2.803,2.804,2.8037,2.8035,2.8043,2.8038,2.8039,2.8039,2.8031,2.8028,2.8031,2.8014,2.8019,2.8018,2.8018,2.8014,2.8012,2.801,2.8035,2.8035,2.8035,0,0,2.8011,2.8014,2.8008,2.801,2.8013,2.8017,2.8016,2.802,2.8022,2.8016,2.8023,2.8021,2.8015,2.8016,2.8015,2.8,2.8005,2.7999,2.799,2.7985,2.7984,2.7982,2.7977,2.7975,2.7998,2.7998,2.7998,0,2.7999,2.7997,2.8004,2.8001,2.8002,2.8011,2.8006,2.8007,2.8008,2.8008,2.8012,2.8008,2.8008,2.8001,2.7997,2.7997,2.7995,2.7999,2.7984,2.7982,2.7981,2.7976,2.7974,2.7997,2.7997,2.7997,2.7997,0,2.7982,2.798,2.7976,2.7979,2.7978,2.7974,2.7981,2.7979,2.7984,2.7988,2.7983,2.7984,2.7983,2.7982,2.7985,2.7975,2.7978,2.7983,2.799,2.7978,2.7974,2.7972,2.7996,2.7997,2.7997,2.7997,0,0,2.7954,2.7963,2.7961,2.7963,2.7968,2.7966,2.7962,2.7963,2.7962,2.7963,2.7959,2.7956,2.7962,2.7961,2.7965,2.7961,2.795,2.7967,2.7967,2.7964,2.794,2.7936,2.7934,2.7954,2.7954,2.7953,2.794,0,2.7937,2.7933,2.794,2.7933,2.7932,2.7942,2.7939,2.7941,2.7945,2.7944,2.7947,2.7945,2.7952,2.7952,2.7949,2.7952,2.7945,2.7953,2.795,2.795,2.795,2.7931,2.7927,2.7914,2.7938,2.7938,2.7938,0,2.7917,2.792,2.7913,2.792,2.7919,2.7916,2.7918,2.7917,2.792,2.7923,2.7924,2.7929,2.7926,2.7934,2.7929,2.7934,2.7934,2.7935,2.7935,2.7934,2.7943,2.793,2.791,2.7908,2.7935,2.7935,2.7935,0,2.7898,2.7899,2.7895,2.7897,2.7904,2.7902,2.7905,2.7909,2.7909,2.791,2.791,2.7911,2.7911,2.7911,2.7916,2.7921,2.7911,2.7919,2.7913,2.7913,2.791,2.791,2.7889,2.7909,2.791,2.791,2.791,0,2.7879,2.7874,2.7887,2.7885,2.788,2.789,2.7885,2.7888,2.7892,2.789,2.7899,2.7897,2.7905,2.7904,2.7908,2.7904,2.7904,2.7906,2.7907,2.7905,2.7905,2.7904,2.7905,2.7909,2.7909,2.7909,2.7909,0,2.7855,2.7864,2.7861,2.7869,2.7871,2.7868,2.7875,2.7873,2.7878,2.7876,2.7876,2.7883,2.7883,2.7889,2.7888,2.7892,2.7885,2.7888,2.7885,2.7885,2.7879,2.788,2.7857,2.7855,2.7877,2.7877,2.7876,0,2.7843,2.784,2.7849,2.7849,2.7852,2.7852,2.7853,2.7862,2.7863,2.7867,2.7865,2.7866,2.7866,2.7865,2.787,2.787,2.7873,2.7865,2.7873,2.7871,2.7873,2.7873,2.7873,2.7863,2.7863,2.7862,2.7862,0,2.7819,2.7824,2.7826,2.7829,2.7831,2.7833,2.7836,2.7836,2.7846,2.7846,2.7847,2.7848,2.7849,2.7849,2.7851,2.7853,2.7859,2.786,2.7859,2.7857,2.7855,2.7856,2.788,2.786,2.786,2.7861,2.7861,2.7861,2.7801,2.78,2.7806,2.7808,2.7812,2.7815,2.7814,2.782,2.7821,2.7824,2.7829,2.7829,2.7833,2.7837,2.7839,2.7838,2.7842,2.784,2.7839,2.7839,2.7838,2.7856,2.7838,2.7838,2.7838,2.7839,2.7839,0,2.7778,2.7784,2.7785,2.7791,2.7792,2.78,2.7804,2.7805,2.7805,2.7809,2.7811,2.7812,2.7813,2.7818,2.782,2.7819,2.7822,2.7819,2.7819,2.7819,2.7834,2.7835,2.7816,2.7816,2.7816,2.7816,2.7816,2.7816,2.7767,2.7765,2.7771,2.7771,2.7776,2.7778,2.778,2.7783,2.7786,2.7788,2.7789,2.7794,2.7798,2.7801,2.7802,2.7804,2.7804,2.78,2.7803,2.7816,2.7818,2.782,2.7821,2.78,2.78,2.7788,2.7788,2.7788]}]]